Simultaneous Nadir Overpasses (SNOs) Predictions

Prediction of SNOs between METOP-B and NPP Satellite Orbit:

Table of predicted SNOs for the next 14.0 days since TLE Epoch: 7/27/2024
Index Date (METOP-B) Time (METOP-B) Lat,Lon (METOP-B) SZA (METOP-B ) Date (NPP) Time (NPP) Lat,Lon (NPP) SZA (NPP ) Distance(km) Time Diff (sec)
1 08/04/2024 02:15:13 -74.13, -41.67 122.86 08/04/2024 02:14:06 -74.12, -44.77 122.66 94.39 67
2 08/04/2024 03:05:57 73.91, 125.14 56.97 08/04/2024 03:04:48 73.93, 123.03 57.13 65.18 69
3 08/04/2024 03:56:41 -73.82, -67.76 123.11 08/04/2024 03:55:30 -73.83, -69.43 122.97 51.88 71
4 08/04/2024 04:47:25 73.60, 99.07 56.72 08/04/2024 04:46:12 73.63, 98.36 56.82 22.71 73
5 08/04/2024 05:38:08 -73.56, -93.70 123.31 08/04/2024 05:36:54 -73.54, -94.11 123.28 12.98 74
6 08/04/2024 06:28:50 73.43, 73.36 56.60 08/04/2024 06:27:38 73.43, 73.43 56.61 2.42 72
7 08/04/2024 07:19:32 -73.44,-119.30 123.39 08/04/2024 07:18:22 -73.44,-119.26 123.37 1.16 70
8 08/04/2024 08:10:12 73.42, 47.99 56.61 08/04/2024 08:09:08 73.44, 48.05 56.64 2.80 64
9 08/04/2024 09:00:54 -73.43,-144.67 123.38 08/04/2024 08:59:52 -73.44,-144.65 123.35 1.95 62
10 08/04/2024 09:51:33 73.46, 22.73 56.66 08/04/2024 09:50:38 73.44, 22.67 56.66 2.60 55
11 08/04/2024 10:42:15 -73.46,-169.93 123.33 08/04/2024 10:41:22 -73.45,-170.03 123.33 3.59 53
12 08/04/2024 11:32:55 73.44, -2.64 56.66 08/04/2024 11:32:08 73.44, -2.71 56.68 2.04 47
13 08/04/2024 12:23:36 -73.45, 164.70 123.32 08/04/2024 12:22:51 -73.45, 164.59 123.31 3.28 45
14 08/04/2024 13:14:16 73.43, -28.02 56.67 08/04/2024 13:13:37 73.45, -28.09 56.70 2.91 39
15 08/04/2024 14:04:58 -73.44, 139.32 123.32 08/04/2024 14:04:21 -73.45, 139.21 123.29 3.91 37
16 08/04/2024 14:55:38 73.42, -53.39 56.68 08/04/2024 14:55:06 73.40, -53.36 56.67 2.21 32
17 08/04/2024 15:46:20 -73.42, 113.95 123.31 08/04/2024 15:45:50 -73.40, 113.94 123.32 2.13 30
18 08/04/2024 16:37:00 73.40, -78.76 56.69 08/04/2024 16:36:36 73.40, -78.74 56.69 0.69 24
19 08/04/2024 17:27:42 -73.41, 88.58 123.30 08/04/2024 17:27:20 -73.41, 88.56 123.30 0.64 22
20 08/04/2024 18:18:22 73.39,-104.13 56.69 08/04/2024 18:18:06 73.40,-104.12 56.71 1.75 16
21 08/04/2024 19:09:04 -73.40, 63.21 123.29 08/04/2024 19:08:50 -73.41, 63.18 123.28 1.75 14
22 08/04/2024 19:59:44 73.37,-129.50 56.70 08/04/2024 19:59:36 73.41,-129.50 56.73 3.55 8
23 08/04/2024 20:50:26 -73.38, 37.84 123.29 08/04/2024 20:50:19 -73.36, 37.91 123.31 3.26 7
24 08/04/2024 21:41:06 73.36,-154.87 56.71 08/04/2024 21:41:05 73.36,-154.77 56.70 3.38 1
25 08/04/2024 22:31:48 -73.37, 12.47 123.28 08/04/2024 22:31:49 -73.37, 12.53 123.29 2.15 1
26 08/04/2024 23:22:28 73.35, 179.75 56.72 08/04/2024 23:22:35 73.36, 179.85 56.72 3.50 7
27 08/05/2024 00:13:10 -73.36, -12.90 123.27 08/05/2024 00:13:19 -73.37, -12.85 123.27 2.32 9
28 08/05/2024 01:03:49 73.38, 154.49 56.77 08/05/2024 01:04:05 73.36, 154.47 56.74 2.21 16
29 08/05/2024 01:54:31 -73.39, -38.16 123.22 08/05/2024 01:54:49 -73.37, -38.23 123.24 3.06 18
30 08/05/2024 02:45:11 73.37, 129.12 56.77 08/05/2024 02:45:35 73.37, 129.09 56.77 1.10 24
31 08/05/2024 03:35:53 -73.38, -63.54 123.22 08/05/2024 03:36:19 -73.37, -63.61 123.22 2.37 26
32 08/05/2024 04:26:33 73.36, 103.75 56.78 08/05/2024 04:27:05 73.37, 103.71 56.79 2.15 32
33 08/05/2024 05:17:15 -73.36, -88.91 123.21 08/05/2024 05:17:49 -73.38, -88.99 123.20 2.95 34
34 08/05/2024 06:07:55 73.34, 78.38 56.79 08/05/2024 06:08:34 73.32, 78.44 56.76 2.81 39
35 08/05/2024 06:58:37 -73.35,-114.28 123.20 08/05/2024 06:59:18 -73.33,-114.26 123.23 2.45 41
36 08/05/2024 07:49:17 73.33, 53.01 56.79 08/05/2024 07:50:04 73.33, 53.06 56.78 1.61 47
37 08/05/2024 08:39:59 -73.34,-139.65 123.19 08/05/2024 08:40:48 -73.33,-139.64 123.21 0.63 49
38 08/05/2024 09:30:39 73.31, 27.64 56.80 08/05/2024 09:31:34 73.33, 27.68 56.80 2.09 55
39 08/05/2024 10:21:21 -73.32,-165.02 123.19 08/05/2024 10:22:18 -73.33,-165.02 123.19 1.31 57
40 08/05/2024 11:12:00 73.35, 2.38 56.85 08/05/2024 11:13:04 73.33, 2.30 56.82 3.31 64
41 08/05/2024 12:02:43 -73.31, 169.61 123.18 08/05/2024 12:03:48 -73.34, 169.60 123.17 3.15 65
42 08/05/2024 12:53:22 73.34, -23.00 56.86 08/05/2024 12:54:34 73.33, -23.09 56.84 2.87 72
43 08/05/2024 13:44:05 -73.30, 144.24 123.17 08/05/2024 13:45:17 -73.29, 144.33 123.20 3.06 72
44 08/05/2024 14:34:48 73.12, -48.81 56.70 08/05/2024 14:36:00 73.14, -48.02 56.64 25.38 72
45 08/05/2024 15:25:32 -73.03, 118.32 123.37 08/05/2024 15:26:43 -73.09, 119.39 123.40 35.29 71
46 08/05/2024 16:16:16 72.80, -74.82 56.45 08/05/2024 16:17:24 72.84, -72.76 56.33 67.87 68
47 08/05/2024 17:06:59 -72.76, 92.42 123.58 08/05/2024 17:08:07 -72.79, 94.65 123.71 73.41 68



Historial Predications of SNOs between METOP-B and NPP
